Time,TemperatureF,DewpointF,PressureIn,WindDirection,WindDirectionDegrees,WindSpeedMPH,WindSpeedGustMPH,Humidity,HourlyPrecipIn,Conditions,Clouds,dailyrainin,SoftwareType,DateUTC
2013-03-19 00:00:00,38.0,-99.9,29.38,North,-999,-999.0,-999.0,-999,-99.99,,,-99.99,,2013-03-19 00:00:00,
2013-03-19 00:43:00,38.0,-99.9,29.38,North,-999,-999.0,-999.0,-999,-99.99,,,-99.99,,2013-03-19 00:43:00,
2013-03-19 00:53:00,38.0,-99.9,29.38,North,-999,-999.0,-999.0,-999,-99.99,,,-99.99,,2013-03-19 00:53:00,
2013-03-19 04:00:00,37.0,-99.9,29.39,North,-999,-999.0,-999.0,-999,-99.99,,,-99.99,,2013-03-19 04:00:00,
2013-03-19 04:53:00,37.0,-99.9,29.39,North,-999,-999.0,-999.0,-999,-99.99,,,-99.99,,2013-03-19 04:53:00,
2013-03-19 05:00:00,35.0,-99.9,29.41,North,-999,-999.0,-999.0,-999,-99.99,,,-99.99,,2013-03-19 05:00:00,
2013-03-19 05:33:00,35.0,-99.9,29.41,North,-999,-999.0,-999.0,-999,-99.99,,,-99.99,,2013-03-19 05:33:00,
2013-03-19 05:43:00,35.0,-99.9,29.41,North,-999,-999.0,-999.0,-999,-99.99,,,-99.99,,2013-03-19 05:43:00,
2013-03-19 05:52:00,35.0,-99.9,29.41,North,-999,-999.0,-999.0,-999,-99.99,,,-99.99,,2013-03-19 05:52:00,
2013-03-19 06:00:00,35.0,-99.9,29.42,North,-999,-999.0,-999.0,-999,-99.99,,,-99.99,,2013-03-19 06:00:00,
2013-03-19 06:42:00,35.0,-99.9,29.42,North,-999,-999.0,-999.0,-999,-99.99,,,-99.99,,2013-03-19 06:42:00,
2013-03-19 06:53:00,35.0,-99.9,29.42,North,-999,-999.0,-999.0,-999,-99.99,,,-99.99,,2013-03-19 06:53:00,
2013-03-19 07:00:00,36.0,-99.9,29.42,North,-999,-999.0,-999.0,-999,-99.99,,,-99.99,,2013-03-19 07:00:00,
2013-03-19 07:32:00,36.0,-99.9,29.42,North,-999,-999.0,-999.0,-999,-99.99,,,-99.99,,2013-03-19 07:32:00,
2013-03-19 07:42:00,36.0,-99.9,29.42,North,-999,-999.0,-999.0,-999,-99.99,,,-99.99,,2013-03-19 07:42:00,
2013-03-19 07:53:00,36.0,-99.9,29.42,North,-999,-999.0,-999.0,-999,-99.99,,,-99.99,,2013-03-19 07:53:00,
2013-03-19 08:00:00,36.0,-99.9,29.42,North,-999,-999.0,-999.0,-999,-99.99,,,-99.99,,2013-03-19 08:00:00,
2013-03-19 08:43:00,36.0,-99.9,29.42,North,-999,-999.0,-999.0,-999,-99.99,,,-99.99,,2013-03-19 08:43:00,
2013-03-19 08:53:00,36.0,-99.9,29.42,North,-999,-999.0,-999.0,-999,-99.99,,,-99.99,,2013-03-19 08:53:00,
2013-03-19 09:00:00,39.0,-99.9,29.43,North,-999,-999.0,-999.0,-999,-99.99,,,-99.99,,2013-03-19 09:00:00,
2013-03-19 09:43:00,39.0,-99.9,29.43,North,-999,-999.0,-999.0,-999,-99.99,,,-99.99,,2013-03-19 09:43:00,
2013-03-19 09:53:00,39.0,-99.9,29.43,North,-999,-999.0,-999.0,-999,-99.99,,,-99.99,,2013-03-19 09:53:00,
2013-03-19 10:00:00,39.0,-99.9,29.45,North,-999,-999.0,-999.0,-999,-99.99,,,-99.99,,2013-03-19 10:00:00,
2013-03-19 10:43:00,39.0,-99.9,29.45,North,-999,-999.0,-999.0,-999,-99.99,,,-99.99,,2013-03-19 10:43:00,
2013-03-19 10:54:00,39.0,-99.9,29.45,North,-999,-999.0,-999.0,-999,-99.99,,,-99.99,,2013-03-19 10:54:00,
2013-03-19 11:00:00,39.0,-99.9,29.46,North,-999,-999.0,-999.0,-999,-99.99,,,-99.99,,2013-03-19 11:00:00,
2013-03-19 11:43:00,39.0,-99.9,29.46,North,-999,-999.0,-999.0,-999,-99.99,,,-99.99,,2013-03-19 11:43:00,
2013-03-19 11:53:00,39.0,-99.9,29.46,North,-999,-999.0,-999.0,-999,-99.99,,,-99.99,,2013-03-19 11:53:00,
2013-03-19 13:00:00,41.0,-99.9,29.46,North,-999,-999.0,-999.0,-999,-99.99,,,-99.99,,2013-03-19 13:00:00,
2013-03-19 13:42:00,41.0,-99.9,29.46,North,-999,-999.0,-999.0,-999,-99.99,,,-99.99,,2013-03-19 13:42:00,
2013-03-19 13:53:00,41.0,-99.9,29.46,North,-999,-999.0,-999.0,-999,-99.99,,,-99.99,,2013-03-19 13:53:00,
2013-03-19 14:00:00,42.0,-99.9,29.45,North,-999,-999.0,-999.0,-999,-99.99,,,-99.99,,2013-03-19 14:00:00,
2013-03-19 14:42:00,42.0,-99.9,29.45,North,-999,-999.0,-999.0,-999,-99.99,,,-99.99,,2013-03-19 14:42:00,
2013-03-19 14:53:00,42.0,-99.9,29.45,North,-999,-999.0,-999.0,-999,-99.99,,,-99.99,,2013-03-19 14:53:00,
2013-03-19 15:00:00,42.0,-99.9,29.45,North,-999,-999.0,-999.0,-999,-99.99,,,-99.99,,2013-03-19 15:00:00,
2013-03-19 15:44:00,42.0,-99.9,29.45,North,-999,-999.0,-999.0,-999,-99.99,,,-99.99,,2013-03-19 15:44:00,
2013-03-19 15:54:00,42.0,-99.9,29.45,North,-999,-999.0,-999.0,-999,-99.99,,,-99.99,,2013-03-19 15:54:00,
2013-03-19 17:00:00,39.0,-99.9,29.45,North,-999,-999.0,-999.0,-999,-99.99,,,-99.99,,2013-03-19 17:00:00,
2013-03-19 17:44:00,39.0,-99.9,29.45,North,-999,-999.0,-999.0,-999,-99.99,,,-99.99,,2013-03-19 17:44:00,
2013-03-19 17:53:00,39.0,-99.9,29.45,North,-999,-999.0,-999.0,-999,-99.99,,,-99.99,,2013-03-19 17:53:00,
2013-03-19 18:00:00,40.0,-99.9,29.47,North,-999,-999.0,-999.0,-999,-99.99,,,-99.99,,2013-03-19 18:00:00,
2013-03-19 18:44:00,40.0,-99.9,29.47,North,-999,-999.0,-999.0,-999,-99.99,,,-99.99,,2013-03-19 18:44:00,
2013-03-19 18:54:00,40.0,-99.9,29.47,North,-999,-999.0,-999.0,-999,-99.99,,,-99.99,,2013-03-19 18:54:00,
2013-03-19 19:00:00,39.0,-99.9,29.48,North,-999,-999.0,-999.0,-999,-99.99,,,-99.99,,2013-03-19 19:00:00,
2013-03-19 19:43:00,39.0,-99.9,29.48,North,-999,-999.0,-999.0,-999,-99.99,,,-99.99,,2013-03-19 19:43:00,
2013-03-19 19:53:00,39.0,-99.9,29.48,North,-999,-999.0,-999.0,-999,-99.99,,,-99.99,,2013-03-19 19:53:00,
2013-03-19 20:00:00,39.0,-99.9,29.49,North,-999,-999.0,-999.0,-999,-99.99,,,-99.99,,2013-03-19 20:00:00,
2013-03-19 20:43:00,39.0,-99.9,29.49,North,-999,-999.0,-999.0,-999,-99.99,,,-99.99,,2013-03-19 20:43:00,
2013-03-19 20:53:00,39.0,-99.9,29.49,North,-999,-999.0,-999.0,-999,-99.99,,,-99.99,,2013-03-19 20:53:00,
2013-03-19 21:00:00,38.0,-99.9,29.51,North,-999,-999.0,-999.0,-999,-99.99,,,-99.99,,2013-03-19 21:00:00,
2013-03-19 21:43:00,38.0,-99.9,29.51,North,-999,-999.0,-999.0,-999,-99.99,,,-99.99,,2013-03-19 21:43:00,
2013-03-19 21:54:00,38.0,-99.9,29.51,North,-999,-999.0,-999.0,-999,-99.99,,,-99.99,,2013-03-19 21:54:00,
2013-03-19 22:00:00,38.0,-99.9,29.52,North,-999,-999.0,-999.0,-999,-99.99,,,-99.99,,2013-03-19 22:00:00,
2013-03-19 22:34:00,38.0,-99.9,29.52,North,-999,-999.0,-999.0,-999,-99.99,,,-99.99,,2013-03-19 22:34:00,
2013-03-19 22:44:00,38.0,-99.9,29.52,North,-999,-999.0,-999.0,-999,-99.99,,,-99.99,,2013-03-19 22:44:00,
2013-03-19 22:54:00,38.0,-99.9,29.52,North,-999,-999.0,-999.0,-999,-99.99,,,-99.99,,2013-03-19 22:54:00,
2013-03-19 23:00:00,40.0,-99.9,29.50,North,-999,-999.0,-999.0,-999,-99.99,,,-99.99,,2013-03-19 23:00:00,
2013-03-19 23:43:00,40.0,-99.9,29.50,North,-999,-999.0,-999.0,-999,-99.99,,,-99.99,,2013-03-19 23:43:00,
2013-03-19 23:53:00,40.0,-99.9,29.50,North,-999,-999.0,-999.0,-999,-99.99,,,-99.99,,2013-03-19 23:53:00,